User: anonymous   Login
Location: Arroyo Retuerta
(40.5469°N, 4.3534°W)
Time: 07:54:09
(UTC+00:00)
Language:

N. Korean satellite - Orbit

View from above orbital plane
View from above orbital plane
View from above satellite
View from above satellite

Ground track
Ground track

The orbit data is extracted from the following two-line orbital elements,

1 39026U 12072A   21268.71370142  .00006560  00000-0  21857-3 0  9999
2 39026  97.2521 259.2097 0036007  29.7619 330.5660 15.30804621488364
Epoch (UTC): 25 September 2021 17:07:43
Eccentricity: 0.0036007
inclination: 97.2521°
perigee height: 449 km
apogee height: 498 km
right ascension of ascending node: 259.2097°
argument of perigee: 29.7619°
revolutions per day: 15.30804621
mean anomaly at epoch: 330.5660°
orbit number at epoch: 48836

The dashed part of the orbit path shows where the satellite is in the earth's shadow,  

DLR